[[{"header":{"parameterUnit":"m.s-1","parameterCategory":2,"la1":30.2991,"la2":30.254,"lo1":-89.0895,"lo2":-89.0444,"dy":0.0017,"dx":0.0017,"nx":28,"ny":28,"refTime":"2024-02-06T09:00:00:Z","depth":"0","parameterNumber":2,"parameterNumberName":"U-component_of_CURRENTS"},"data":[0,0,0,0,0,0,0,0,0,0,0,0,0,0,0,0,0,0,0,0,0,0,0,0,0,0,0,0,0,0,0,0,0,0,0,0,0,0,0,0,0,0,0,0,0,0,0,0,0,0,0,0,0,0,0,0,0,0,-0.2262,-0.2263,0,-0.2287,-0.2287,-0.2287,-0.2267,-0.2266,-0.2266,-0.2265,-0.2235,-0.2235,-0.2235,0,0,0,0,0,0,0,0,0,0,0,0,0,-0.2185,-0.2187,-0.2262,-0.2263,-0.2263,-0.2287,-0.2287,-0.2287,-0.2267,-0.2266,-0.2265,-0.2265,-0.2235,-0.2235,-0.2235,0,0,0,0,0,0,0,0,0,0,0,0,0,-0.2212,-0.2187,-0.2262,-0.2258,-0.2258,-0.2287,-0.2287,-0.2287,-0.2267,-0.2266,-0.2265,-0.2264,-0.2236,-0.2235,-0.2235,-0.2249,0,0,-0.2234,-0.2233,0,0,0,0,0,0,0,0,-0.2211,-0.2215,-0.2258,-0.2259,-0.2259,-0.2276,-0.2249,-0.2273,-0.2267,-0.226,-0.2265,-0.2264,-0.2246,-0.2245,-0.2248,-0.2248,-0.2247,-0.2234,-0.2233,-0.2233,-0.2233,0,0,0,0,0,0,0,-0.2209,-0.2214,-0.2269,-0.2259,-0.2259,-0.2252,-0.2254,-0.2254,-0.2254,-0.2261,-0.226,-0.2268,-0.2246,-0.2248,-0.2247,-0.2246,-0.2234,-0.2233,-0.2233,-0.2233,-0.2255,-0.2255,0,0,0,0,0,0,-0.2214,-0.2212,-0.2268,-0.227,-0.2236,-0.2254,-0.2257,-0.2269,-0.2256,-0.2254,-0.2269,-0.2267,-0.225,-0.2248,-0.2246,-0.2275,-0.2233,-0.2233,-0.2233,-0.2254,-0.2255,-0.2256,0,0,0,0,0,0,-0.2213,-0.2219,-0.2267,-0.2243,-0.2249,-0.2257,-0.227,-0.227,-0.227,-0.2263,-0.226,-0.227,-0.2249,-0.2246,-0.2249,-0.2272,-0.2233,-0.2232,-0.2253,-0.2254,-0.2255,-0.2324,0,0,0,0,0,0,-0.221,-0.2218,-0.2222,-0.2244,-0.2251,-0.2285,-0.2271,-0.2271,-0.2278,-0.2276,-0.2263,-0.226,-0.2248,-0.225,-0.2249,-0.2271,-0.2232,-0.2252,-0.2253,-0.2255,-0.232,-0.2327,-0.2333,0,0,0,0,0,-0.2207,-0.2219,-0.2222,-0.2229,-0.2258,-0.2286,-0.2289,-0.2288,-0.2279,-0.2284,-0.2277,-0.226,-0.2259,-0.2251,-0.2249,-0.2272,-0.2251,-0.2253,-0.2255,-0.2318,-0.2326,-0.2333,0,0,0,0,0,0,-0.2185,-0.2219,-0.2223,-0.2242,-0.2264,-0.2284,-0.2288,-0.2292,-0.2291,-0.2285,-0.2272,-0.2268,-0.2278,-0.2265,-0.2256,-0.2281,-0.2252,-0.2253,-0.23,-0.2308,-0.2314,-0.2314,-0.2232,0,0,0,0,0,-0.2184,-0.2198,-0.2232,-0.2244,-0.2258,-0.2274,-0.2282,-0.2288,-0.2296,-0.2294,-0.2287,-0.2281,-0.2286,-0.2288,-0.2283,-0.23,-0.2295,-0.2312,-0.2318,-0.2324,-0.2323,-0.2356,-0.2365,-0.2262,-0.2262,-0.2261,0,0,-0.2174,-0.2198,-0.2202,-0.224,-0.2254,-0.2282,-0.2276,-0.2295,-0.2317,-0.2291,-0.2305,-0.2299,-0.2294,-0.2312,-0.2316,-0.2304,-0.2349,-0.2326,-0.2331,-0.2326,-0.2359,-0.2369,-0.2378,-0.2263,-0.2263,-0.2262,0,0,-0.217,-0.2189,-0.2201,-0.2228,-0.2262,-0.2282,-0.229,-0.2315,-0.2323,-0.2342,-0.2332,-0.2345,-0.2341,-0.2355,-0.236,-0.2398,-0.2378,-0.239,-0.2428,-0.2461,-0.247,-0.2478,-0.248,-0.2488,-0.2398,-0.2398,-0.2398,0,-0.2156,-0.2185,-0.2208,-0.2237,-0.2264,-0.2285,-0.2315,-0.2333,-0.2353,-0.2374,-0.2349,-0.2377,-0.2367,-0.2416,-0.242,-0.2415,-0.2413,-0.2403,-0.2471,-0.2478,-0.2485,-0.2486,-0.2493,-0.2401,-0.2401,-0.2401,-0.24,0,-0.2168,-0.2195,-0.2208,-0.2255,-0.2287,-0.2315,-0.2358,-0.2384,-0.2394,-0.2415,-0.2453,-0.2447,-0.2464,-0.2469,-0.245,-0.2503,-0.2478,-0.2474,-0.2455,-0.25,-0.2497,-0.2504,-0.2406,-0.2405,-0.2404,-0.2403,0,0,-0.2125,-0.2202,-0.2204,-0.2239,-0.2303,-0.2333,-0.2385,-0.2446,-0.2488,-0.2499,-0.2551,-0.2558,-0.2552,-0.2555,-0.2549,-0.2573,-0.2614,-0.2539,-0.2539,-0.2546,-0.2664,-0.2587,-0.2586,-0.2622,-0.2624,-0.2625,-0.2641,0,-0.2126,-0.2183,-0.2226,-0.2284,-0.2322,-0.238,-0.2433,-0.2491,-0.2529,-0.2581,-0.2601,-0.2629,-0.2589,-0.2596,-0.2618,-0.2616,-0.2634,-0.2608,-0.2613,-0.2613,-0.2544,-0.2593,-0.2459,-0.2456,-0.2647,-0.2648,-0.2649,0,-0.2118,-0.2165,-0.222,-0.2321,-0.2344,-0.2381,-0.2485,-0.2535,-0.2622,-0.2653,-0.2695,-0.2701,-0.2736,-0.2691,-0.2718,-0.27,-0.2679,-0.2674,-0.2675,-0.2582,-0.2548,-0.2442,-0.2461,-0.2426,-0.2658,-0.2658,-0.2657,0,-0.2075,-0.2161,-0.2207,-0.2238,-0.235,-0.2389,-0.2447,-0.2545,-0.2597,-0.2689,-0.2727,-0.2777,-0.2787,-0.2792,-0.2754,-0.2742,-0.2776,-0.2766,-0.268,-0.2674,-0.2549,-0.2528,-0.2537,-0.2787,-0.2787,-0.2787,-0.2787,0,-0.2062,-0.2097,-0.2186,-0.2212,-0.2278,-0.2363,-0.2441,-0.2514,-0.2613,-0.2675,-0.274,-0.278,-0.2809,-0.2823,-0.2792,-0.2747,-0.2806,-0.269,-0.2681,-0.2566,-0.2548,-0.2501,-0.2522,-0.2788,-0.2788,-0.2788,-0.2788,0,-0.1999,-0.2061,-0.2118,-0.2223,-0.2255,-0.2295,-0.2415,-0.2476,-0.2575,-0.2657,-0.268,-0.278,-0.2803,-0.2819,-0.283,-0.2779,-0.2704,-0.2725,-0.257,-0.2542,-0.2418,-0.2447,-0.2442,-0.2377,-0.2643,-0.2641,-0.264,0,-0.1973,-0.1991,-0.2092,-0.2124,-0.2165,-0.224,-0.2301,-0.2429,-0.2494,-0.264,-0.267,-0.2736,-0.2758,-0.2759,-0.2697,-0.2652,-0.2641,-0.2501,-0.2456,-0.2396,-0.2424,-0.2436,-0.2383,-0.2317,-0.2313,-0.231,-0.2307,0,-0.191,-0.1937,-0.1984,-0.204,-0.2096,-0.2168,-0.2256,-0.2301,-0.2451,-0.2524,-0.2604,-0.2634,-0.2655,-0.2558,-0.2508,-0.246,-0.2426,-0.2431,-0.2422,-0.2213,-0.2176,-0.2111,-0.2312,-0.2278,-0.2281,-0.2283,-0.2285,-0.2286,-0.1841,-0.1851,-0.1896,-0.1943,-0.2007,-0.2048,-0.2066,-0.217,-0.2235,-0.2306,-0.2432,-0.2445,-0.2414,-0.2324,-0.2284,-0.2149,-0.2222,-0.2066,-0.2119,-0.2145,-0.2046,-0.2167,-0.2093,-0.2095,-0.2096,-0.2098,-0.2099,0,-0.1743,-0.1763,-0.1799,-0.1843,-0.1855,-0.1924,-0.2001,-0.1994,-0.2015,-0.2113,-0.2153,-0.2154,-0.2055,-0.2054,-0.1944,-0.1853,-0.1808,-0.1816,-0.1804,-0.1774,-0.191,-0.1855,-0.1661,-0.1661,-0.1661,-0.1662,-0.1662,-0.1662,-0.1692,-0.1677,-0.1694,-0.1662,-0.1692,-0.1656,-0.1666,-0.1671,-0.1711,-0.1715,-0.1758,-0.1846,-0.1855,-0.1943,-0.1817,-0.1726,-0.169,-0.1622,-0.168,-0.1779,-0.1806,-0.1832,-0.1783,-0.1577,-0.1577,-0.1439,-0.1438,-0.1438]},{"header":{"parameterUnit":"m.s-1","parameterCategory":2,"la1":30.2991,"la2":30.254,"lo1":-89.0895,"lo2":-89.0444,"dy":0.0017,"dx":0.0017,"nx":28,"ny":28,"refTime":"2024-02-06T09:00:00:Z","depth":"0","parameterNumber":3,"parameterNumberName":"V-component_of_CURRENTS"},"data":[0,0,0,0,0,0,0,0,0,0,0,0,0,0,0,0,0,0,0,0,0,0,0,0,0,0,0,0,0,0,0,0,0,0,0,0,0,0,0,0,0,0,0,0,0,0,0,0,0,0,0,0,0,0,0,0,0,0,-0.0052,-0.0051,0,0.0037,0.0038,0.0039,0.009,0.009,0.009,0.0091,0.0204,0.0207,0.021,0,0,0,0,0,0,0,0,0,0,0,0,0,-0.0133,-0.0132,-0.0052,-0.0051,-0.005,0.0037,0.0038,0.004,0.009,0.009,0.0091,0.0091,0.0203,0.0207,0.021,0,0,0,0,0,0,0,0,0,0,0,0,0,-0.0076,-0.0131,-0.0052,-0.0015,-0.001,0.0037,0.0038,0.004,0.009,0.009,0.0091,0.0091,0.0202,0.0206,0.0211,0.0234,0,0,0.0224,0.0226,0,0,0,0,0,0,0,0,-0.0079,-0.0073,-0.0021,-0.0017,-0.0012,0.0052,0.0052,0.0106,0.009,0.0053,0.0091,0.0091,0.0155,0.0163,0.018,0.0239,0.0244,0.0224,0.0227,0.0229,0.023,0,0,0,0,0,0,0,-0.0083,-0.0076,-0.0016,-0.002,-0.0015,0.0013,0.0021,0.0062,0.0103,0.0056,0.006,0.0068,0.0158,0.0176,0.0183,0.0246,0.0224,0.0228,0.0231,0.0232,0.0338,0.0338,0,0,0,0,0,0,-0.0098,-0.008,-0.0019,-0.0013,-0.0047,0.0014,0.0023,0.0032,0.0102,0.0112,0.0068,0.007,0.0168,0.0178,0.0188,0.0217,0.0229,0.0233,0.0235,0.0338,0.0338,0.0338,0,0,0,0,0,0,-0.01,-0.0093,-0.0022,-0.0045,-0.0034,0.0015,0.0025,0.0034,0.0051,0.0111,0.0122,0.0076,0.0169,0.0181,0.0223,0.0222,0.0235,0.0239,0.0338,0.0338,0.0338,0.0278,0,0,0,0,0,0,-0.0103,-0.0095,-0.0096,-0.0046,-0.0033,-0.0001,0.0025,0.0035,0.0056,0.006,0.0122,0.0132,0.017,0.0216,0.0227,0.0228,0.0242,0.0337,0.0338,0.0338,0.028,0.0277,0.0273,0,0,0,0,0,-0.0106,-0.011,-0.0096,-0.0089,-0.0036,-0.0002,0.0007,0.0044,0.0056,0.0061,0.0104,0.013,0.0226,0.022,0.0233,0.0235,0.0337,0.0338,0.0338,0.0282,0.0277,0.0274,0,0,0,0,0,0,-0.0147,-0.0104,-0.0088,-0.0079,-0.0046,0.0006,0.0013,0.0039,0.0077,0.008,0.0135,0.0149,0.0184,0.0219,0.0211,0.0267,0.0285,0.0288,0.0238,0.0234,0.0231,0.021,0.0246,0,0,0,0,0,-0.0158,-0.0149,-0.0103,-0.0097,-0.0084,-0.0037,-0.0019,0.0006,0.0047,0.0064,0.0108,0.0155,0.0196,0.0221,0.0262,0.0295,0.0331,0.0305,0.0302,0.0299,0.0291,0.0345,0.0345,0.034,0.034,0.034,0,0,-0.0173,-0.0149,-0.0144,-0.0106,-0.0078,-0.0064,-0.0026,-0.0004,0.0009,0.0071,0.0099,0.0144,0.0202,0.0237,0.0256,0.0267,0.0321,0.0299,0.0296,0.029,0.0345,0.0346,0.0346,0.034,0.034,0.034,0,0,-0.0201,-0.0178,-0.018,-0.0156,-0.0119,-0.0089,-0.0086,-0.0035,-0.0012,0.0022,0.0068,0.0113,0.0175,0.0219,0.0249,0.0253,0.0298,0.0264,0.0235,0.0287,0.0288,0.0289,0.0337,0.0343,0.0266,0.0266,0.0266,0,-0.0223,-0.0218,-0.0176,-0.0171,-0.0162,-0.0105,-0.0108,-0.0073,-0.0015,0.0001,0.0021,0.0114,0.0167,0.0213,0.0217,0.0245,0.0278,0.0243,0.0282,0.0284,0.0286,0.0335,0.0342,0.0263,0.0263,0.0263,0.0264,0,-0.0248,-0.0246,-0.0247,-0.0223,-0.0206,-0.02,-0.015,-0.0127,-0.0094,-0.0054,-0.0006,0.0068,0.0122,0.0149,0.0187,0.0226,0.0246,0.0267,0.0287,0.0282,0.0335,0.0343,0.0259,0.026,0.0261,0.0261,0,0,-0.0296,-0.0271,-0.0273,-0.0282,-0.0237,-0.0231,-0.0207,-0.0172,-0.0164,-0.0097,-0.0077,0.0008,0.0049,0.0085,0.0142,0.0194,0.0246,0.0231,0.0235,0.0269,0.0357,0.0385,0.0398,0.027,0.0271,0.0272,0.0387,0,-0.0332,-0.0351,-0.032,-0.0343,-0.0351,-0.03,-0.029,-0.0248,-0.02,-0.0162,-0.0076,-0.0033,0.0025,0.0049,0.011,0.021,0.0265,0.0212,0.0364,0.0368,0.0387,0.0407,0.0419,0.0524,0.0396,0.0397,0.0398,0,-0.0366,-0.0378,-0.0405,-0.0417,-0.0417,-0.0415,-0.0397,-0.0375,-0.0297,-0.0263,-0.0194,-0.0124,-0.0032,0.0013,0.0178,0.0139,0.0238,0.0318,0.0325,0.0376,0.0412,0.0509,0.0544,0.0697,0.0412,0.0411,0.041,0,-0.0429,-0.0442,-0.0474,-0.0473,-0.0465,-0.0471,-0.0461,-0.0404,-0.0398,-0.0317,-0.03,-0.0183,-0.0121,0.0011,0.0186,0.018,0.0368,0.0384,0.0504,0.0507,0.056,0.0566,0.0752,0.0496,0.0496,0.0495,0.0495,0,-0.048,-0.0509,-0.0508,-0.0526,-0.0576,-0.0538,-0.0565,-0.0533,-0.0487,-0.048,-0.0356,-0.0321,-0.0119,0.0017,0.0167,0.0366,0.0359,0.0503,0.0541,0.054,0.0543,0.0711,0.0775,0.05,0.0499,0.0498,0.0497,0,-0.0534,-0.0531,-0.0579,-0.0594,-0.0604,-0.0635,-0.0648,-0.0664,-0.0602,-0.0584,-0.0563,-0.0415,-0.0229,-0.0017,0.0216,0.0343,0.0624,0.0598,0.0582,0.0616,0.0852,0.091,0.1115,0.1208,0.0741,0.0742,0.0744,0,-0.0563,-0.0587,-0.0637,-0.0681,-0.0691,-0.0729,-0.0759,-0.0727,-0.0732,-0.0643,-0.0639,-0.0458,-0.0318,0.004,0.0304,0.0582,0.0707,0.0743,0.0737,0.0875,0.097,0.1,0.1065,0.0789,0.0791,0.0792,0.0793,0,-0.0622,-0.0634,-0.0676,-0.0764,-0.0816,-0.0875,-0.0901,-0.0926,-0.0872,-0.0835,-0.0741,-0.0617,-0.0253,0.008,0.0448,0.0605,0.0849,0.0775,0.0933,0.1035,0.1067,0.1171,0.07,0.0804,0.0802,0.0802,0.0801,0.0801,-0.0665,-0.0715,-0.077,-0.0855,-0.0924,-0.0996,-0.1041,-0.1051,-0.1053,-0.0969,-0.0824,-0.0606,-0.0105,0.0422,0.0617,0.1004,0.097,0.1103,0.1167,0.1188,0.1269,0.0815,0.0949,0.0949,0.0948,0.0948,0.0948,0,-0.072,-0.0775,-0.0862,-0.0962,-0.1051,-0.106,-0.1121,-0.1141,-0.1142,-0.1005,-0.0866,-0.0331,0.0162,0.0627,0.1192,0.1392,0.1436,0.148,0.1538,0.1591,0.1211,0.1203,0.1379,0.1379,0.1379,0.1379,0.1379,0.1379,-0.0753,-0.0843,-0.0888,-0.1045,-0.1115,-0.121,-0.1243,-0.1248,-0.1164,-0.0923,-0.0635,-0.0372,0.0305,0.1235,0.1751,0.1785,0.1969,0.1919,0.204,0.1784,0.1754,0.1725,0.1735,0.202,0.2021,0.2391,0.2395,0.2398]}],[{"header":{"parameterUnit":"m.s-1","parameterCategory":2,"la1":30.2991,"la2":30.254,"lo1":-89.0895,"lo2":-89.0444,"dy":0.0017,"dx":0.0017,"nx":28,"ny":28,"refTime":"2024-02-06T09:00:00:Z","depth":"2","parameterNumber":2,"parameterNumberName":"U-component_of_CURRENTS"},"data":[0,0,0,0,0,0,0,0,0,0,0,0,0,0,0,0,0,0,0,0,0,0,0,0,0,0,0,0,0,0,0,0,0,0,0,0,0,0,0,0,0,0,0,0,0,0,0,0,0,0,0,0,0,0,0,0,0,0,-0.1971,-0.1971,0,-0.1992,-0.1992,-0.1992,-0.1983,-0.1983,-0.1982,-0.1982,-0.1962,-0.1961,-0.1961,0,0,0,0,0,0,0,0,0,0,0,0,0,-0.1898,-0.1899,-0.1971,-0.1971,-0.1972,-0.1992,-0.1992,-0.1992,-0.1983,-0.1983,-0.1982,-0.1982,-0.1962,-0.1961,-0.1961,0,0,0,0,0,0,0,0,0,0,0,0,0,-0.1923,-0.19,-0.1971,-0.1972,-0.1972,-0.1992,-0.1992,-0.1992,-0.1983,-0.1983,-0.1982,-0.1982,-0.1962,-0.1961,-0.1961,-0.1965,0,0,-0.1959,-0.1959,0,0,0,0,0,0,0,0,-0.1921,-0.1925,-0.1971,-0.1972,-0.1973,-0.1987,-0.1959,-0.1982,-0.1983,-0.1976,-0.1982,-0.1982,-0.1969,-0.1968,-0.1969,-0.1965,-0.1964,-0.1959,-0.1959,-0.1959,-0.1959,0,0,0,0,0,0,0,-0.192,-0.1924,-0.1976,-0.1972,-0.1973,-0.1964,-0.1966,-0.1963,-0.1971,-0.1976,-0.1977,-0.1984,-0.1968,-0.1969,-0.1968,-0.1963,-0.1959,-0.1959,-0.1959,-0.1959,-0.1979,-0.1979,0,0,0,0,0,0,-0.1925,-0.1923,-0.1976,-0.1977,-0.1949,-0.1965,-0.1969,-0.198,-0.1972,-0.1971,-0.1984,-0.1983,-0.197,-0.1969,-0.1967,-0.1999,-0.1959,-0.1959,-0.1958,-0.1978,-0.1979,-0.198,0,0,0,0,0,0,-0.1924,-0.193,-0.1975,-0.1952,-0.1958,-0.1968,-0.1981,-0.1981,-0.1987,-0.1979,-0.1977,-0.199,-0.197,-0.1968,-0.1974,-0.1997,-0.1958,-0.1958,-0.1977,-0.1978,-0.1979,-0.2046,0,0,0,0,0,0,-0.1921,-0.1929,-0.1935,-0.1953,-0.1959,-0.1992,-0.1981,-0.1982,-0.1993,-0.1992,-0.1983,-0.1981,-0.1969,-0.1975,-0.1973,-0.1996,-0.1958,-0.1976,-0.1977,-0.1979,-0.2043,-0.2049,-0.2055,0,0,0,0,0,-0.1919,-0.1931,-0.1936,-0.1942,-0.1969,-0.1993,-0.1995,-0.1998,-0.1994,-0.2,-0.1996,-0.1981,-0.1983,-0.1975,-0.1973,-0.1996,-0.1975,-0.1977,-0.1979,-0.204,-0.2048,-0.2055,0,0,0,0,0,0,-0.1898,-0.1932,-0.1937,-0.1957,-0.1977,-0.1992,-0.1998,-0.2003,-0.2006,-0.2004,-0.1991,-0.1989,-0.2002,-0.1989,-0.198,-0.2006,-0.1977,-0.1978,-0.2024,-0.2031,-0.2037,-0.2038,-0.1957,0,0,0,0,0,-0.1899,-0.1917,-0.1946,-0.196,-0.1972,-0.1987,-0.1995,-0.2002,-0.201,-0.2011,-0.2007,-0.2003,-0.2008,-0.2011,-0.2006,-0.2022,-0.2018,-0.2035,-0.2041,-0.2047,-0.2046,-0.2077,-0.2087,-0.1986,-0.1986,-0.1986,0,0,-0.1892,-0.1914,-0.1922,-0.1957,-0.197,-0.1994,-0.199,-0.201,-0.203,-0.2008,-0.2026,-0.2021,-0.2015,-0.2034,-0.2038,-0.2027,-0.2072,-0.2049,-0.2054,-0.205,-0.208,-0.209,-0.2099,-0.1987,-0.1987,-0.1986,0,0,-0.189,-0.1911,-0.1926,-0.195,-0.1981,-0.1998,-0.2007,-0.2031,-0.2041,-0.206,-0.2053,-0.2068,-0.2065,-0.2077,-0.2081,-0.2118,-0.2101,-0.2112,-0.215,-0.2181,-0.219,-0.2197,-0.2203,-0.221,-0.212,-0.212,-0.212,0,-0.188,-0.1909,-0.1932,-0.1958,-0.1982,-0.2003,-0.203,-0.2048,-0.2068,-0.2089,-0.207,-0.2099,-0.209,-0.2134,-0.214,-0.2134,-0.2135,-0.2125,-0.219,-0.2198,-0.2205,-0.2208,-0.2216,-0.2123,-0.2123,-0.2122,-0.2122,0,-0.1893,-0.192,-0.1932,-0.1976,-0.2005,-0.2031,-0.207,-0.2096,-0.211,-0.213,-0.2169,-0.2166,-0.2183,-0.2188,-0.217,-0.2221,-0.22,-0.2193,-0.2175,-0.2219,-0.2219,-0.2226,-0.2128,-0.2127,-0.2126,-0.2125,0,0,-0.1857,-0.1929,-0.1931,-0.1962,-0.2021,-0.2047,-0.2096,-0.2151,-0.2192,-0.2207,-0.2258,-0.2267,-0.2267,-0.2269,-0.2264,-0.2288,-0.233,-0.2257,-0.2257,-0.2267,-0.2382,-0.2301,-0.23,-0.2338,-0.2339,-0.2341,-0.2362,0,-0.1858,-0.191,-0.195,-0.2002,-0.2035,-0.2089,-0.2138,-0.2192,-0.223,-0.2282,-0.2303,-0.2334,-0.2299,-0.231,-0.2332,-0.2329,-0.2351,-0.2324,-0.2332,-0.2332,-0.2259,-0.2306,-0.2108,-0.2105,-0.2369,-0.237,-0.237,0,-0.1853,-0.1894,-0.1945,-0.2034,-0.2054,-0.2089,-0.2185,-0.2231,-0.2315,-0.2347,-0.2391,-0.2401,-0.2437,-0.2399,-0.2428,-0.2411,-0.2396,-0.2393,-0.2394,-0.2297,-0.2263,-0.2103,-0.2107,-0.2381,-0.238,-0.238,-0.2379,0,-0.1814,-0.1891,-0.1934,-0.1962,-0.2061,-0.2099,-0.2151,-0.2243,-0.2291,-0.2382,-0.2421,-0.2471,-0.2485,-0.2495,-0.2463,-0.2453,-0.2487,-0.2478,-0.2397,-0.239,-0.2211,-0.2185,-0.2505,-0.2505,-0.2505,-0.2505,-0.2505,0,-0.1802,-0.1834,-0.1917,-0.194,-0.2,-0.2077,-0.215,-0.2217,-0.231,-0.2367,-0.2436,-0.2473,-0.2507,-0.2523,-0.2499,-0.2457,-0.2515,-0.2406,-0.2397,-0.2226,-0.2204,-0.2431,-0.2422,-0.2506,-0.2506,-0.2505,-0.2505,0,-0.1746,-0.1804,-0.1855,-0.1951,-0.1981,-0.2018,-0.2126,-0.2182,-0.2278,-0.2354,-0.2379,-0.2473,-0.2496,-0.2516,-0.2532,-0.2485,-0.2468,-0.2438,-0.2221,-0.2185,-0.2342,-0.2337,-0.2364,-0.2362,-0.2359,-0.2358,-0.2356,0,-0.1723,-0.1741,-0.1833,-0.1863,-0.1901,-0.1971,-0.2025,-0.2142,-0.22,-0.2335,-0.2362,-0.2427,-0.2441,-0.2443,-0.2387,-0.2349,-0.2418,-0.2145,-0.2093,-0.2343,-0.2332,-0.2329,-0.2327,-0.1882,-0.1876,-0.1872,-0.1869,0,-0.1665,-0.1694,-0.1735,-0.1786,-0.1838,-0.19,-0.1979,-0.2015,-0.2152,-0.2216,-0.2283,-0.2305,-0.2325,-0.2195,-0.2154,-0.2103,-0.2138,-0.2056,-0.2386,-0.1947,-0.189,-0.1878,-0.1891,-0.183,-0.1834,-0.1837,-0.1839,-0.1841,-0.1605,-0.1614,-0.1655,-0.1697,-0.1754,-0.1784,-0.1793,-0.1883,-0.1933,-0.1986,-0.2102,-0.2076,-0.2079,-0.1913,-0.1832,-0.177,-0.1915,-0.182,-0.1833,-0.1851,-0.179,-0.1732,-0.1631,-0.1633,-0.1635,-0.1637,-0.1639,0,-0.1514,-0.1534,-0.1565,-0.16,-0.1606,-0.1672,-0.173,-0.1711,-0.1714,-0.1781,-0.1807,-0.1643,-0.1562,-0.158,-0.142,-0.1396,-0.138,-0.1343,-0.1311,-0.1349,-0.1383,-0.1299,-0.1009,-0.1007,-0.1005,-0.1004,0,0,-0.1466,-0.1451,-0.1465,-0.1428,-0.1454,-0.1413,-0.1414,-0.1398,-0.141,-0.1357,-0.1342,-0.1463,-0.1515,-0.1253,-0.1197,-0.1075,-0.1201,-0.1024,-0.1525,-0.1524,-0.1556,-0.1649,-0.1562,0,0,0,0,0]},{"header":{"parameterUnit":"m.s-1","parameterCategory":2,"la1":30.2991,"la2":30.254,"lo1":-89.0895,"lo2":-89.0444,"dy":0.0017,"dx":0.0017,"nx":28,"ny":28,"refTime":"2024-02-06T09:00:00:Z","depth":"2","parameterNumber":3,"parameterNumberName":"V-component_of_CURRENTS"},"data":[0,0,0,0,0,0,0,0,0,0,0,0,0,0,0,0,0,0,0,0,0,0,0,0,0,0,0,0,0,0,0,0,0,0,0,0,0,0,0,0,0,0,0,0,0,0,0,0,0,0,0,0,0,0,0,0,0,0,-0.0119,-0.0118,0,-0.0039,-0.0038,-0.0037,0.0012,0.0012,0.0012,0.0012,0.0117,0.0119,0.0122,0,0,0,0,0,0,0,0,0,0,0,0,0,-0.0192,-0.0191,-0.0119,-0.0118,-0.0117,-0.0039,-0.0038,-0.0037,0.0012,0.0012,0.0012,0.0012,0.0116,0.0119,0.0122,0,0,0,0,0,0,0,0,0,0,0,0,0,-0.0141,-0.0191,-0.0119,-0.0084,-0.008,-0.0039,-0.0038,-0.0036,0.0012,0.0012,0.0012,0.0012,0.0115,0.0118,0.0122,0.0141,0,0,0.0134,0.0136,0,0,0,0,0,0,0,0,-0.0144,-0.0138,-0.009,-0.0086,-0.0082,-0.0024,-0.0025,0.0024,0.0011,-0.0023,0.0012,0.0012,0.0071,0.0079,0.0094,0.0146,0.0151,0.0135,0.0137,0.0139,0.014,0,0,0,0,0,0,0,-0.0147,-0.0141,-0.0087,-0.0089,-0.0084,-0.0059,-0.0052,-0.0016,0.0023,-0.002,-0.0016,-0.0008,0.0074,0.009,0.0097,0.0152,0.0135,0.0138,0.014,0.0142,0.0237,0.0237,0,0,0,0,0,0,-0.0161,-0.0144,-0.0089,-0.0084,-0.0113,-0.0059,-0.005,-0.0042,0.0022,0.0032,-0.0009,-0.0006,0.0083,0.0092,0.01,0.0128,0.0139,0.0142,0.0145,0.0237,0.0237,0.0237,0,0,0,0,0,0,-0.0162,-0.0156,-0.0092,-0.0113,-0.0103,-0.0058,-0.0049,-0.0041,-0.0024,0.003,0.004,-0.0001,0.0084,0.0095,0.0133,0.0133,0.0144,0.0148,0.0236,0.0237,0.0237,0.0183,0,0,0,0,0,0,-0.0165,-0.0158,-0.0158,-0.0114,-0.0103,-0.0074,-0.0049,-0.004,-0.002,-0.0016,0.004,0.005,0.0085,0.0127,0.0137,0.0138,0.0151,0.0236,0.0237,0.0237,0.0184,0.0181,0.0178,0,0,0,0,0,-0.0168,-0.0172,-0.0159,-0.0152,-0.0105,-0.0074,-0.0066,-0.0033,-0.002,-0.0016,0.0024,0.0049,0.0136,0.013,0.0142,0.0144,0.0236,0.0236,0.0237,0.0186,0.0182,0.0179,0,0,0,0,0,0,-0.0206,-0.0166,-0.0151,-0.0143,-0.0114,-0.0067,-0.0061,-0.0037,-0.0002,0.0002,0.0053,0.0065,0.0097,0.0129,0.0122,0.0173,0.0189,0.0192,0.0147,0.0143,0.014,0.0121,0.0154,0,0,0,0,0,-0.0215,-0.0207,-0.0165,-0.016,-0.0148,-0.0105,-0.009,-0.0066,-0.0029,-0.0013,0.0027,0.0071,0.0108,0.0131,0.0168,0.0198,0.023,0.0207,0.0204,0.0201,0.0194,0.0242,0.0242,0.0238,0.0238,0.0238,0,0,-0.0229,-0.0207,-0.0202,-0.0168,-0.0143,-0.013,-0.0095,-0.0075,-0.0064,-0.0007,0.0019,0.006,0.0113,0.0145,0.0162,0.0172,0.022,0.0202,0.0199,0.0193,0.0242,0.0243,0.0243,0.0239,0.0238,0.0238,0,0,-0.0254,-0.0233,-0.0234,-0.0213,-0.018,-0.0153,-0.015,-0.0104,-0.0083,-0.0052,-0.0009,0.0032,0.0088,0.0129,0.0155,0.0159,0.02,0.017,0.0144,0.019,0.019,0.0191,0.0234,0.0239,0.0172,0.0172,0.0172,0,-0.0275,-0.0269,-0.0231,-0.0227,-0.0219,-0.0167,-0.017,-0.0138,-0.0086,-0.0071,-0.0053,0.0032,0.0081,0.0122,0.0127,0.0152,0.0182,0.0151,0.0185,0.0186,0.0188,0.0232,0.0238,0.0169,0.0169,0.017,0.017,0,-0.0296,-0.0294,-0.0295,-0.0273,-0.0258,-0.0253,-0.0208,-0.0188,-0.0158,-0.0122,-0.0079,-0.0011,0.0038,0.0064,0.0099,0.0135,0.0153,0.0172,0.0189,0.0185,0.0232,0.0239,0.0165,0.0166,0.0167,0.0168,0,0,-0.0339,-0.0317,-0.0318,-0.0326,-0.0286,-0.0282,-0.026,-0.023,-0.0224,-0.0162,-0.0146,-0.0067,-0.003,0.0003,0.0057,0.0103,0.015,0.0138,0.0142,0.0172,0.0249,0.0268,0.0279,0.0173,0.0174,0.0174,0.0276,0,-0.0371,-0.0388,-0.0361,-0.0382,-0.039,-0.0345,-0.0337,-0.0301,-0.0258,-0.0225,-0.0145,-0.0108,-0.0052,-0.003,0.0026,0.0117,0.0167,0.0121,0.0256,0.026,0.0271,0.0287,0.0248,0.0336,0.0284,0.0285,0.0286,0,-0.0401,-0.0412,-0.0437,-0.045,-0.045,-0.045,-0.0437,-0.0418,-0.035,-0.0319,-0.0257,-0.0193,-0.011,-0.0066,0.0083,0.0049,0.0141,0.0214,0.022,0.026,0.0293,0.0333,0.0352,0.0299,0.0298,0.0297,0.0296,0,-0.0458,-0.047,-0.0499,-0.0499,-0.0494,-0.0501,-0.0494,-0.0445,-0.0442,-0.037,-0.0356,-0.025,-0.0195,-0.0073,0.0087,0.0084,0.0251,0.0268,0.0373,0.0376,0.038,0.0382,0.0371,0.037,0.037,0.037,0.037,0,-0.0504,-0.053,-0.0531,-0.0548,-0.0595,-0.0562,-0.059,-0.0563,-0.0524,-0.0521,-0.0408,-0.0379,-0.0195,-0.0073,0.0067,0.0245,0.0241,0.0371,0.0405,0.0361,0.036,0.0356,0.0352,0.0374,0.0373,0.0372,0.0372,0,-0.0553,-0.055,-0.0594,-0.061,-0.062,-0.0651,-0.0667,-0.0684,-0.0631,-0.0619,-0.0601,-0.0468,-0.0303,-0.0112,0.0101,0.0218,0.0385,0.045,0.0386,0.0411,0.0483,0.0476,0.0571,0.0572,0.0574,0.0575,0.0576,0,-0.0579,-0.0601,-0.0648,-0.069,-0.0699,-0.0737,-0.0768,-0.0742,-0.075,-0.0675,-0.0673,-0.0515,-0.0393,-0.0071,0.0166,0.0418,0.043,0.0518,0.0509,0.0481,0.0504,0.0495,0.0487,0.0498,0.0498,0.0499,0.0499,0,-0.0633,-0.0645,-0.0683,-0.0765,-0.0816,-0.0872,-0.09,-0.0925,-0.0881,-0.0852,-0.0772,-0.0665,-0.0345,-0.0071,0.0258,0.0394,0.0473,0.053,0.0528,0.0447,0.0419,0.044,0.0433,0.05,0.05,0.05,0.05,0.05,-0.0673,-0.0719,-0.077,-0.0849,-0.0914,-0.0983,-0.1026,-0.1037,-0.1043,-0.0971,-0.0852,-0.0662,-0.0378,0.0083,0.0322,0.0536,0.0528,0.058,0.0576,0.0573,0.0541,0.0516,0.0609,0.061,0.061,0.061,0.0611,0,-0.0723,-0.0775,-0.0855,-0.0947,-0.1029,-0.1041,-0.1101,-0.1116,-0.1117,-0.1002,-0.0884,-0.0573,-0.0243,0.0058,0.0402,0.0606,0.0589,0.0632,0.0575,0.0571,0.0569,0.0534,0.0602,0.0603,0.0604,0.0604,0,0,-0.0755,-0.0837,-0.0879,-0.1021,-0.1086,-0.1176,-0.1209,-0.1205,-0.113,-0.1017,-0.086,-0.0619,-0.0245,0.0003,0.0266,0.0449,0.0453,0.0457,0.0438,0.0335,0.033,0.0508,0.0447,0,0,0,0,0]}],[{"header":{"parameterUnit":"m.s-1","parameterCategory":2,"la1":30.2991,"la2":30.254,"lo1":-89.0895,"lo2":-89.0444,"dy":0.0017,"dx":0.0017,"nx":28,"ny":28,"refTime":"2024-02-06T09:00:00:Z","depth":"4","parameterNumber":2,"parameterNumberName":"U-component_of_CURRENTS"},"data":[0,0,0,0,0,0,0,0,0,0,0,0,0,0,0,0,0,0,0,0,0,0,0,0,0,0,0,0,0,0,0,0,0,0,0,0,0,0,0,0,0,0,0,0,0,0,0,0,0,0,0,0,0,0,0,0,0,0,-0.1352,-0.1352,0,-0.1398,-0.1398,-0.1399,-0.1432,-0.1432,-0.1433,-0.1433,-0.1468,-0.1468,-0.1469,0,0,0,0,0,0,0,0,0,0,0,0,0,-0.1274,-0.1275,-0.1352,-0.1352,-0.1353,-0.1398,-0.1398,-0.1399,-0.1432,-0.1432,-0.1433,-0.1433,-0.1468,-0.1468,-0.1469,0,0,0,0,0,0,0,0,0,0,0,0,0,-0.1311,-0.1276,-0.1351,-0.1376,-0.1379,-0.1398,-0.1398,-0.1399,-0.1432,-0.1432,-0.1433,-0.1434,-0.1467,-0.1468,-0.1469,-0.1459,0,0,-0.1471,-0.1471,0,0,0,0,0,0,0,0,-0.1309,-0.1313,-0.1372,-0.1375,-0.1378,-0.1412,-0.1384,-0.1419,-0.1431,-0.1409,-0.1433,-0.1434,-0.1449,-0.1451,-0.1455,-0.1461,-0.1463,-0.1471,-0.1472,-0.1472,-0.1472,0,0,0,0,0,0,0,-0.1306,-0.1312,-0.1368,-0.1373,-0.1377,-0.138,-0.1385,-0.139,-0.1423,-0.1411,-0.1414,-0.1423,-0.145,-0.1455,-0.1456,-0.1463,-0.1471,-0.1472,-0.1472,-0.1473,-0.1533,-0.1534,0,0,0,0,0,0,-0.1305,-0.1309,-0.1366,-0.1369,-0.1347,-0.1381,-0.1387,-0.1398,-0.1423,-0.1428,-0.1422,-0.1424,-0.1453,-0.1456,-0.1458,-0.1522,-0.1472,-0.1473,-0.1473,-0.1532,-0.1533,-0.1534,0,0,0,0,0,0,-0.1303,-0.131,-0.1365,-0.1342,-0.1349,-0.1382,-0.1394,-0.1399,-0.1429,-0.1432,-0.1436,-0.145,-0.1454,-0.1457,-0.1489,-0.152,-0.1473,-0.1474,-0.153,-0.1532,-0.1534,-0.1602,0,0,0,0,0,0,-0.1301,-0.1309,-0.1326,-0.1342,-0.1351,-0.1393,-0.1393,-0.1399,-0.1433,-0.1437,-0.1457,-0.1459,-0.1454,-0.1488,-0.1489,-0.1521,-0.1474,-0.1529,-0.1531,-0.1533,-0.1598,-0.1606,-0.1613,0,0,0,0,0,-0.1298,-0.1315,-0.1327,-0.1335,-0.1371,-0.1394,-0.1399,-0.1422,-0.1434,-0.1451,-0.1469,-0.146,-0.1503,-0.1489,-0.1491,-0.1523,-0.1528,-0.153,-0.1533,-0.1595,-0.1605,-0.1612,0,0,0,0,0,0,-0.1288,-0.1321,-0.1334,-0.1361,-0.1385,-0.1401,-0.1422,-0.1436,-0.1464,-0.1475,-0.1475,-0.1479,-0.1517,-0.1509,-0.1495,-0.1546,-0.1513,-0.1517,-0.156,-0.1569,-0.1576,-0.1574,-0.1475,0,0,0,0,0,-0.1295,-0.132,-0.1346,-0.137,-0.1384,-0.1408,-0.1425,-0.1442,-0.1463,-0.1478,-0.1493,-0.1508,-0.1524,-0.1539,-0.1546,-0.1576,-0.1569,-0.1597,-0.1604,-0.161,-0.161,-0.1639,-0.1649,-0.1543,-0.1543,-0.1543,0,0,-0.1299,-0.132,-0.1336,-0.1371,-0.1391,-0.1418,-0.142,-0.1454,-0.1484,-0.1475,-0.1525,-0.1533,-0.1536,-0.157,-0.1587,-0.1574,-0.1636,-0.1614,-0.1619,-0.1615,-0.1643,-0.1653,-0.1662,-0.1545,-0.1544,-0.1544,0,0,-0.1308,-0.1339,-0.136,-0.1385,-0.1424,-0.144,-0.1457,-0.149,-0.1516,-0.1555,-0.156,-0.1592,-0.1613,-0.1629,-0.1636,-0.1685,-0.1669,-0.1688,-0.1729,-0.1758,-0.1767,-0.1775,-0.1776,-0.1784,-0.1696,-0.1697,-0.1697,0,-0.1313,-0.1344,-0.137,-0.1396,-0.1424,-0.1454,-0.1485,-0.1512,-0.1554,-0.1582,-0.1581,-0.1637,-0.1641,-0.169,-0.1705,-0.1703,-0.1705,-0.1699,-0.1768,-0.1776,-0.1783,-0.1782,-0.1789,-0.17,-0.17,-0.1699,-0.1699,0,-0.1331,-0.1367,-0.1383,-0.143,-0.1462,-0.1495,-0.1536,-0.1578,-0.1612,-0.1638,-0.17,-0.1712,-0.1744,-0.1755,-0.1743,-0.1799,-0.1779,-0.1772,-0.1748,-0.1798,-0.1793,-0.18,-0.1705,-0.1704,-0.1703,-0.1702,0,0,-0.1307,-0.1383,-0.139,-0.1424,-0.1487,-0.1512,-0.1574,-0.1633,-0.1682,-0.1724,-0.1784,-0.1815,-0.1828,-0.1835,-0.1838,-0.1864,-0.191,-0.184,-0.184,-0.1842,-0.1958,-0.1812,-0.1804,-0.1919,-0.1921,-0.1922,-0.1935,0,-0.1315,-0.1369,-0.1409,-0.1471,-0.1505,-0.1563,-0.1617,-0.1678,-0.1731,-0.1794,-0.1829,-0.1876,-0.1858,-0.1881,-0.1907,-0.1907,-0.193,-0.1906,-0.1908,-0.1907,-0.1772,-0.1808,-0.1927,-0.1939,-0.194,-0.1941,-0.1942,0,-0.1312,-0.1354,-0.1415,-0.1503,-0.1525,-0.1569,-0.167,-0.1722,-0.1814,-0.1856,-0.1916,-0.1939,-0.1987,-0.1962,-0.1998,-0.1984,-0.1975,-0.1972,-0.1973,-0.1813,-0.1772,-0.1879,-0.1953,-0.1952,-0.1952,-0.1951,-0.195,0,-0.1272,-0.1356,-0.141,-0.1439,-0.154,-0.1588,-0.1644,-0.1742,-0.1792,-0.1897,-0.1939,-0.2003,-0.2031,-0.2047,-0.2028,-0.2023,-0.2053,-0.2047,-0.191,-0.1899,-0.1998,-0.1989,-0.2076,-0.2076,-0.2076,-0.2076,-0.2076,0,-0.1251,-0.1296,-0.1399,-0.1426,-0.1497,-0.1575,-0.1658,-0.1727,-0.1824,-0.1876,-0.1962,-0.1994,-0.2054,-0.2071,-0.2055,-0.1985,-0.2075,-0.1912,-0.1894,-0.2025,-0.2019,-0.2002,-0.1993,-0.2077,-0.2076,-0.2076,-0.2076,0,-0.1193,-0.1264,-0.1328,-0.144,-0.1479,-0.1527,-0.1645,-0.1697,-0.1801,-0.1871,-0.1902,-0.1995,-0.2007,-0.2041,-0.206,-0.1994,-0.1962,-0.1918,-0.2043,-0.2032,-0.1783,-0.1778,-0.1768,-0.1763,-0.1759,-0.1755,-0.1752,0,-0.1164,-0.1194,-0.1316,-0.1356,-0.1408,-0.1494,-0.155,-0.1669,-0.1716,-0.1842,-0.1856,-0.1918,-0.1958,-0.1867,-0.1916,-0.1883,-0.1859,-0.1835,-0.1816,-0.1769,-0.1754,-0.1755,-0.1756,-0.1745,-0.1744,-0.1743,-0.1742,0,-0.1103,-0.1158,-0.1211,-0.1283,-0.1349,-0.1414,-0.1496,-0.1514,-0.1639,-0.1757,-0.1757,-0.1757,-0.1769,-0.1767,-0.1752,-0.1729,-0.1848,-0.1791,-0.1799,-0.1781,-0.1742,-0.1731,-0.1737,-0.1727,-0.1729,-0.1731,-0.1732,0,-0.1054,-0.1073,-0.114,-0.1195,-0.127,-0.129,-0.1355,-0.1399,-0.1454,-0.1597,-0.1587,-0.1656,-0.1743,-0.1685,-0.167,-0.1635,-0.1611,-0.1561,-0.1582,-0.1599,-0.1535,-0.146,-0.134,0,0,0,0,0,-0.0993,-0.1001,-0.1043,-0.1091,-0.1156,-0.1192,-0.1298,-0.1366,-0.149,-0.1447,-0.151,-0.1511,-0.1489,-0.1526,-0.1452,-0.1586,-0.1613,-0.1493,-0.1566,-0.1645,-0.1662,-0.1602,0,0,0,0,0,0,-0.095,-0.0985,-0.1001,-0.0979,-0.0992,-0.1043,-0.11,-0.119,-0.1178,-0.1312,-0.1307,-0.1413,-0.1413,-0.1502,-0.1418,-0.1428,-0.1441,-0.1546,-0.1541,-0.1636,-0.1651,-0.1665,-0.1608,0,0,0,0,0]},{"header":{"parameterUnit":"m.s-1","parameterCategory":2,"la1":30.2991,"la2":30.254,"lo1":-89.0895,"lo2":-89.0444,"dy":0.0017,"dx":0.0017,"nx":28,"ny":28,"refTime":"2024-02-06T09:00:00:Z","depth":"4","parameterNumber":3,"parameterNumberName":"V-component_of_CURRENTS"},"data":[0,0,0,0,0,0,0,0,0,0,0,0,0,0,0,0,0,0,0,0,0,0,0,0,0,0,0,0,0,0,0,0,0,0,0,0,0,0,0,0,0,0,0,0,0,0,0,0,0,0,0,0,0,0,0,0,0,0,-0.0129,-0.0128,0,-0.0076,-0.0075,-0.0074,-0.0039,-0.0039,-0.0039,-0.0039,0.004,0.0042,0.0044,0,0,0,0,0,0,0,0,0,0,0,0,0,-0.0175,-0.0174,-0.0129,-0.0128,-0.0128,-0.0076,-0.0075,-0.0074,-0.004,-0.0039,-0.0039,-0.0039,0.004,0.0042,0.0044,0,0,0,0,0,0,0,0,0,0,0,0,0,-0.0141,-0.0174,-0.0129,-0.0105,-0.0102,-0.0076,-0.0075,-0.0074,-0.004,-0.0039,-0.0039,-0.0039,0.0039,0.0042,0.0045,0.0058,0,0,0.0054,0.0055,0,0,0,0,0,0,0,0,-0.0143,-0.0139,-0.0109,-0.0106,-0.0103,-0.0065,-0.0062,-0.0029,-0.004,-0.0062,-0.0039,-0.0039,0.0007,0.0013,0.0023,0.0062,0.0066,0.0054,0.0056,0.0057,0.0058,0,0,0,0,0,0,0,-0.0146,-0.0141,-0.0107,-0.0108,-0.0105,-0.0088,-0.0083,-0.0055,-0.0029,-0.006,-0.0058,-0.0053,0.0009,0.002,0.0025,0.0067,0.0054,0.0057,0.0058,0.006,0.0133,0.0133,0,0,0,0,0,0,-0.0155,-0.0144,-0.0109,-0.0105,-0.0124,-0.0087,-0.0082,-0.0077,-0.0029,-0.0022,-0.0054,-0.0052,0.0015,0.0022,0.0028,0.0049,0.0057,0.006,0.0062,0.0133,0.0133,0.0133,0,0,0,0,0,0,-0.0156,-0.0153,-0.0111,-0.0124,-0.0118,-0.0087,-0.0081,-0.0076,-0.0065,-0.0025,-0.0017,-0.0049,0.0015,0.0024,0.0052,0.0053,0.0061,0.0064,0.0133,0.0133,0.0133,0.0091,0,0,0,0,0,0,-0.0158,-0.0153,-0.0155,-0.0125,-0.0117,-0.01,-0.0081,-0.0075,-0.0063,-0.006,-0.0018,-0.001,0.0016,0.0048,0.0055,0.0057,0.0066,0.0132,0.0133,0.0133,0.0092,0.009,0.0088,0,0,0,0,0,-0.016,-0.0164,-0.0156,-0.0151,-0.012,-0.01,-0.0095,-0.0072,-0.0063,-0.0061,-0.003,-0.0011,0.0055,0.005,0.0059,0.0062,0.0132,0.0133,0.0133,0.0093,0.009,0.0088,0,0,0,0,0,0,-0.0187,-0.016,-0.015,-0.0146,-0.0127,-0.0095,-0.0092,-0.0075,-0.005,-0.0047,-0.0009,0.0001,0.0025,0.005,0.0044,0.0084,0.0097,0.0099,0.0063,0.0061,0.0059,0.0043,0.0069,0,0,0,0,0,-0.0194,-0.019,-0.0161,-0.016,-0.0152,-0.0123,-0.0113,-0.0097,-0.007,-0.0059,-0.0028,0.0005,0.0034,0.0052,0.008,0.0103,0.0126,0.0111,0.0108,0.0106,0.01,0.0137,0.0137,0.0134,0.0134,0.0134,0,0,-0.0205,-0.019,-0.0188,-0.0166,-0.0149,-0.0142,-0.0116,-0.0104,-0.0097,-0.0054,-0.0035,-0.0003,0.0038,0.0062,0.0076,0.0083,0.012,0.0107,0.0105,0.0099,0.0137,0.0138,0.0138,0.0135,0.0135,0.0135,0,0,-0.0224,-0.0211,-0.0213,-0.0199,-0.0178,-0.016,-0.0158,-0.0127,-0.0112,-0.009,-0.0057,-0.0025,0.0017,0.0049,0.0071,0.0074,0.0105,0.0083,0.0062,0.0099,0.0099,0.0099,0.0129,0.0133,0.0085,0.0085,0.0085,0,-0.024,-0.0237,-0.0211,-0.021,-0.0206,-0.0171,-0.0175,-0.0153,-0.0116,-0.0106,-0.0091,-0.0027,0.0011,0.0043,0.0048,0.0069,0.009,0.0067,0.0095,0.0096,0.0097,0.0128,0.0132,0.0083,0.0083,0.0083,0.0083,0,-0.0255,-0.0256,-0.0258,-0.0245,-0.0237,-0.0235,-0.0205,-0.0193,-0.0172,-0.0146,-0.0115,-0.0062,-0.0025,-0.0003,0.0026,0.0055,0.0067,0.0084,0.0098,0.0095,0.0128,0.0133,0.008,0.0081,0.0081,0.0082,0,0,-0.0284,-0.0273,-0.0275,-0.0284,-0.0258,-0.0259,-0.0246,-0.0227,-0.0227,-0.018,-0.0171,-0.0108,-0.008,-0.0054,-0.001,0.0028,0.0065,0.0057,0.006,0.008,0.0139,0.0124,0.0129,0.0084,0.0085,0.0086,0.0158,0,-0.0307,-0.0323,-0.0307,-0.0328,-0.0335,-0.0308,-0.0306,-0.0283,-0.0255,-0.0234,-0.0172,-0.0146,-0.0098,-0.0082,-0.0035,0.0036,0.0077,0.0043,0.0145,0.0148,0.0129,0.0134,0.0088,0.0162,0.0163,0.0164,0.0165,0,-0.0326,-0.0338,-0.0362,-0.038,-0.0383,-0.0389,-0.0389,-0.0379,-0.0333,-0.0312,-0.0267,-0.0219,-0.0153,-0.0115,0.0003,-0.0023,0.0053,0.0112,0.0116,0.0118,0.0143,0.0168,0.0175,0.0174,0.0174,0.0173,0.0172,0,-0.0363,-0.038,-0.0408,-0.0411,-0.0417,-0.043,-0.0431,-0.0403,-0.0406,-0.0357,-0.0351,-0.0269,-0.0228,-0.013,-0.0001,-0.0,0.0128,0.0146,0.0204,0.0204,0.0214,0.0213,0.0229,0.0229,0.0229,0.0228,0.0228,0,-0.0391,-0.0417,-0.0432,-0.0448,-0.0494,-0.0477,-0.0511,-0.0496,-0.0476,-0.048,-0.0395,-0.0376,-0.0229,-0.0135,-0.0021,0.0104,0.0116,0.0197,0.0221,0.0196,0.0191,0.0218,0.0216,0.0231,0.0231,0.023,0.023,0,-0.0419,-0.0426,-0.0468,-0.0495,-0.0511,-0.0542,-0.0574,-0.0594,-0.0563,-0.0562,-0.0551,-0.0452,-0.033,-0.0181,-0.0011,0.0072,0.0197,0.0243,0.02,0.022,0.0253,0.0248,0.0302,0.0302,0.0302,0.0302,0.0302,0,-0.0432,-0.0452,-0.051,-0.055,-0.0567,-0.0611,-0.0644,-0.0639,-0.0649,-0.0609,-0.0607,-0.0497,-0.0413,-0.0186,-0.0032,0.0175,0.0211,0.0268,0.0265,0.0242,0.026,0.0255,0.025,0.0302,0.0302,0.0302,0.0302,0,-0.046,-0.0482,-0.0518,-0.0598,-0.0651,-0.0707,-0.0743,-0.076,-0.074,-0.0721,-0.0646,-0.0523,-0.0382,-0.0197,-0.003,0.0118,0.0222,0.0269,0.027,0.0268,0.0243,0.026,0.0255,0.0302,0.0302,0.0302,0.0302,0,-0.0484,-0.0521,-0.0573,-0.0642,-0.0715,-0.0772,-0.0792,-0.0791,-0.0792,-0.0728,-0.0707,-0.0543,-0.0442,-0.0227,-0.0079,0.0068,0.0104,0.0145,0.0153,0.0155,0.0091,0.0037,0.005,0,0,0,0,0,-0.0501,-0.0547,-0.0617,-0.0691,-0.0761,-0.0801,-0.0844,-0.0848,-0.0827,-0.078,-0.0737,-0.06,-0.0374,-0.0274,-0.0129,-0.0088,0.0118,0.0083,0.0167,0.0303,0.0303,0.0252,0,0,0,0,0,0,-0.0517,-0.0581,-0.0617,-0.071,-0.0767,-0.0841,-0.0871,-0.0863,-0.082,-0.0777,-0.065,-0.0576,-0.0349,-0.045,-0.0128,-0.0085,-0.0016,0.0196,0.0199,0.0303,0.0303,0.0303,0.025,0,0,0,0,0]}]]